Location: Huntsville
(41.2590°N, 111.7678°W)
Time: 19:29:45
(UTC+00:00)

Courier 1B Rocket - Pass Details

Date: 15 June 2021
Orbit: 920 x 1202 km, 28.2° (Epoch: 01 August)

Event Time Altitude Azimuth Distance (km) Brightness Sun altitude
Rises 02:57:26 0° 208° (SSW) 3,677 8.0 -0.2°
Reaches altitude 10° 03:02:10 10° 178° (S) 2,672 7.0 -0.9°
Maximum altitude 03:04:21 12° 158° (SSE) 2,518 6.7 -1.3°
Drops below altitude 10° 03:06:31 10° 138° (SE) 2,633 6.7 -1.6°
Enters shadow 03:10:23 - 111° (ESE) 3,377 7.2 -2.2°
Sets 03:11:03 0° 108° (ESE) 3,553 - -2.3°
